Regional Weather Roundup
Issued by NWS

Home | Current Version | Previous Version | Text Only | Print | Product List | Glossary Off
Versions: 1 2 3 4 5 6 7 8 9 10 11 12 13 14 15 16 17 18 19 20 21 22 23 24 25 26 27 28 29 30 31 32 33 34 35 36 37 38 39 40 41 42 43 44 45 46 47 48 49 50

000
ASUS43 KBIS 210302
RWRND

NORTH DAKOTA REGIONAL WEATHER ROUNDUP
NATIONAL WEATHER SERVICE BISMARCK ND
900 PM CST MON NOV 20 2017

NOTE: "FAIR" INDICATES FEW OR NO CLOUDS BELOW 12,000 FEET WITH NO
SIGNIFICANT WEATHER AND/OR OBSTRUCTIONS TO VISIBILITY.


NDZ001>003-009>011-017-210400-
NORTHWEST NORTH DAKOTA

CITY           SKY/WX    TMP DP  RH WIND       PRES   REMARKS
WILLISTON      CLOUDY    18   4  54 N20G32    29.89R WCI   2
MINOT          PTCLDY    15   5  64 W33G46    29.75R WCI  -6
MINOT AFB      MOCLDY    13   5  69 NW31G41   29.72R WCI  -8
$$

NDZ018>021-031>035-040>046-210400-
SOUTHWEST NORTH DAKOTA

CITY           SKY/WX    TMP DP  RH WIND       PRES   REMARKS
BISMARCK       MOCLDY    37  18  46 NW24G32   29.71R
DICKINSON      CLOUDY    32  11  41 NW20G25   29.74R
GARRISON         N/A     21  12  68 NW26G33   29.73R WCI   4
HETTINGER ARPT FLURRIES  34  15  46 NW23G29   29.78R
$$

NDZ004>008-012>016-024-026-027-054-210400-
NORTHEAST NORTH DAKOTA

CITY           SKY/WX    TMP DP  RH WIND       PRES   REMARKS
GRAND FORKS    MOCLDY    26  18  71 NW28G47   29.54R WCI  10
GRND FRKS AFB  PTCLDY    25  16  69 N31       29.55R WCI   8
DEVILS LAKE    CLOUDY    22  17  81 NW20      29.58R WCI   7
$$

NDZ022-023-025-028>030-036>039-047>053-210400-
SOUTHEAST NORTH DAKOTA

CITY           SKY/WX    TMP DP  RH WIND       PRES   REMARKS
FARGO          CLEAR     33  23  66 W23G35    29.56R
JAMESTOWN      CLEAR     28  20  71 NW25G32   29.61R WCI  13
$$





USA.gov is the U.S. government's official web portal to all federal, state and local government web resources and services.